Header for Extended Forecast Station List Page

Search by: ID | Name | Date | Parm | Value | Avg | % Avg
Sort by: ID | Name | Date | Parm | Value | Avg | % Avg

Enter search or view all records.

Click on id for station plot
#IDNameDateParmValueAvg% Avg
0LYDM8KOOTENAI-LIBBY DAM06-14-2021INFLOW (KAF)2590372270
1LEOI1KOOTENAI-AT LEONIA06-14-2021DISCHARGE (KAF)1867350853
2BFEI1KOOTENAI-AT BONNERS FERRY06-14-2021STAGE (FT)MMM
3FCFM8NF FLATHEAD-NEAR COLUMBIA FALLS06-14-2021DISCHARGE (KAF)48175364
4WGCM8MF FLATHEAD-NEAR WEST GLACIER06-14-2021DISCHARGE (KAF)45670465
5HHWM8SF FLATHEAD-HUNGRY HORSE DAM06-14-2021INFLOW (KAF)48673067
6CFMM8FLATHEAD-AT COLUMBIA FALLS06-14-2021DISCHARGE (KAF)1606221273
7DLGM8CLARK FORK-AT DEER LODGE06-14-2021DISCHARGE (KAF)234848
8DRMM8CLARK FORK-NR DRUMMOND06-14-2021DISCHARGE (KAF)82MM
9RCCM8ROCK CREEK-NEAR CLINTON06-14-2021DISCHARGE (KAF)10513876
10BONM8BLACKFOOT-NEAR BONNER06-14-2021DISCHARGE (KAF)31636986
11ABOM8CLARK FORK-ABOVE MISSOULA06-14-2021DISCHARGE (KAF)53069676
12BITM8BITTERROOT-NEAR MISSOULA06-14-2021DISCHARGE (KAF)30356054
13BELM8CLARK FORK-BELOW MISSOULA06-14-2021DISCHARGE (KAF)829128664
14STRM8ST. REGIS-NEAR ST. REGIS06-14-2021DISCHARGE (KAF)426465
15SRGM8CLARK FORK-AT ST REGIS06-14-2021DISCHARGE (KAF)1048166763
16KERM8FLATHEAD-SELI’Š KSANKA QLISPE’ DAM06-14-2021INFLOW (KAF)1802270567
17NOXM8CLARK FORK-NOXON RAPIDS DAM06-14-2021INFLOW (KAF)3377484070
18CABI1CLARK FORK-CABINET GORGE DAM06-14-2021INFLOW (KAF)3712517972
19PRTI1PRIEST-NEAR PRIEST RIVER06-14-2021DISCHARGE (KAF)20824984
20ALFW1PEND OREILLE-ALBENI FALLS DAM06-14-2021INFLOW (KAF)3792561668
21HOPI1PEND OREILLE-PEND OREILLE LAKE NR HOPE06-14-2021LAKE ELEVATION (FT)MMM
22COEI1COEUR D ALENE-COEUR D ALENE LAKE06-14-2021INFLOW (KAF)29445065
23SPOW1SPOKANE-AT SPOKANE06-14-2021DISCHARGE (KAF)353MM
24LLKW1SPOKANE-AT LONGLAKE06-14-2021INFLOW (KAF)50680463
25SATI1ST MARIES-NEAR SANTA06-14-2021DISCHARGE (KAF)202870
26SJMI1ST JOE-AT ST MARIES06-14-2021STAGE (FT)MMM
27CIBW1COLUMBIA-AT INTL BOUNDARY06-14-2021DISCHARGE (KAF)21049MM
28LAUW1KETTLE-AT LAURIER06-14-2021DISCHARGE (KAF)22750745
29GCDW1COLUMBIA-GRAND COULEE DAM06-14-2021INFLOW (KAF)218373158069
30CHJW1COLUMBIA-CHIEF JOSEPH DAM06-14-2021INFLOW (KAF)216202558085
31TONW1OKANOGAN-NEAR TONASKET06-14-2021DISCHARGE (KAF)46766670
32PATW1METHOW-NEAR PATEROS06-14-2021DISCHARGE (KAF)27036075
33WELW1COLUMBIA-WELLS DAM06-14-2021INFLOW (KAF)223632683883
34CHDW1CHELAN-LAKE CHELAN DAM06-14-2021INFLOW (KAF)51054793
35RRHW1COLUMBIA-ROCKY REACH DAM06-14-2021INFLOW (KAF)228692745683
36ARDW1ENTIAT-NEAR ARDENVOIR06-14-2021DISCHARGE (KAF)769778
37PESW1WENATCHEE-AT PESHASTIN06-14-2021DISCHARGE (KAF)60867690
38WANW1COLUMBIA-WANAPUM DAM06-14-2021INFLOW (KAF)235493207273
39PRWW1COLUMBIA-PRIEST RAPIDS DAM06-14-2021INFLOW (KAF)235543268872
40KEDW1YAKIMA-KEECHELUS LAKE06-14-2021INFLOW (KAF)4536123
41KADW1KACHESS-KACHESS DAM06-14-2021INFLOW (KAF)4429150
42EASW1YAKIMA-AT EASTON06-14-2021DISCHARGE (KAF)8079102
43CLUW1CLE ELUM-CLE ELUM LAKE06-14-2021INFLOW (KAF)206152136
44TNAW1TEANAWAY-BELOW FORKS06-14-2021DISCHARGE (KAF)2318134
45UMTW1YAKIMA-AT UMTANUM06-14-2021DISCHARGE (KAF)721713101
46BUDW1BUMPING-BUMPING LAKE DAM06-14-2021INFLOW (KAF)274856
47CLFW1NACHES-NEAR CLIFFDEL06-14-2021DISCHARGE (KAF)14115293
48RILW1TIETON-RIMROCK LAKE NEAR RIMROCK06-14-2021INFLOW (KAF)10710998
49NACW1NACHES-NEAR NACHES06-14-2021DISCHARGE (KAF)21823792
50PARW1YAKIMA-NEAR PARKER06-14-2021DISCHARGE (KAF)12213193
51KIOW1YAKIMA-AT KIONA06-14-2021DISCHARGE (KAF)43245794
52IPDI1HENRYS FORK-ISLAND PARK DAM06-14-2021INFLOW (KAF)10816466
53CHEI1FALL RIVER-NEAR CHESTER06-14-2021DISCHARGE (KAF)4213032
54ANTI1HENRYS FORK-AT ST. ANTHONY06-14-2021DISCHARGE (KAF)23636066
55TEAI1TETON-NEAR ST. ANTHONY06-14-2021DISCHARGE (KAF)16324666
56REXI1HENRYS FORK-AT REXBURG06-14-2021DISCHARGE (KAF)23242255
57JLKW4SNAKE-JACKSON LAKE AT DAM06-14-2021INFLOW (KAF)17042140
58JKSW4SNAKE-NEAR JACKSON06-14-2021DISCHARGE (KAF)823132862
59ALPW4SNAKE-NEAR ALPINE06-14-2021DISCHARGE (KAF)977161960
60PLDI1SF SNAKE-PALISADES DAM06-14-2021INFLOW (KAF)1259216858
61HEII1SNAKE-NEAR HEISE06-14-2021DISCHARGE (KAF)2333246895
62RIDI1WILLOW CREEK-RIRIE DAM06-14-2021INFLOW (KAF)1719
63SIFI1SNAKE-AB EAGLE ROCK NR IDAHO FALLS06-14-2021DISCHARGE (KAF)1329169778
64SHYI1SNAKE-NEAR SHELLEY06-14-2021DISCHARGE (KAF)1155136085
65SNAI1SNAKE-AT BLACKFOOT06-14-2021DISCHARGE (KAF)59285969
66BFTI1SNAKE-NEAR BLACKFOOT06-14-2021DISCHARGE (KAF)57078273
67PIHI1PORTNEUF-AT POCATELLO06-14-2021DISCHARGE (KAF)92437
68AFRI1SNAKE-AMERICAN FALLS RESERVOIR06-14-2021INFLOW (KAF)1108142278
69MILI1SNAKE-AT MILNER06-14-2021DISCHARGE (KAF)M80M
70HOTI1BRUNEAU-NEAR HOT SPRINGS06-14-2021DISCHARGE (KAF)74915
71SWAI1SNAKE-BELOW SWAN FALLS06-14-2021DISCHARGE (KAF)1421196272
72HWRI1BIG LOST-AT HOWELL RANCH NEAR CHILLY06-14-2021DISCHARGE (KAF)3010030
73MACI1BIG LOST-MACKAY RESERVOIR NEAR MACKAY06-14-2021INFLOW (KAF)318836
74HALI1BIG WOOD-AT HAILEY06-14-2021DISCHARGE (KAF)4512636
75MAGI1BIG WOOD-MAGIC DAM06-14-2021INFLOW (KAF)87910
76LWRI1LITTLE WOOD-LITTLE WOOD DAM06-14-2021INFLOW (KAF)72625
77OWYO3OWYHEE-OWYHEE DAM06-14-2021INFLOW (KAF)336154
78ARAI1SF BOISE-ANDERSON RANCH DAM06-14-2021INFLOW (KAF)6216937
79LUCI1BOISE-LUCKY PEAK DAM06-14-2021INFLOW (KAF)544MM
80BIGI1BOISE-AT GLENWOOD BRIDGE06-14-2021DISCHARGE (KAF)18423777
81PARI1BOISE-NEAR PARMA06-14-2021DISCHARGE (KAF)18723779
82WRMO3MALHEUR-WARM SPRINGS DAM06-14-2021INFLOW (KAF)22105
83BERO3MALHEUR-AGENCY VALLEY DAM06-14-2021INFLOW (KAF)7974
84BULO3BULLY CREEK-BULLY CREEK DAM06-14-2021INFLOW (KAF)M0M
85CSDI1NF PAYETTE-CASCADE DAM06-14-2021INFLOW (KAF)5914241
86DEDI1DEADWOOD-NEAR LOWMAN06-14-2021INFLOW (KAF)185236
87EMMI1PAYETTE-NEAR EMMETT06-14-2021DISCHARGE (KAF)32860954
88WSRI1WEISER-NEAR WEISER06-14-2021DISCHARGE (KAF)548465
89WEII1SNAKE-AT WEISER06-14-2021DISCHARGE (KAF)2180309870
90BRNI1SNAKE-BROWNLEE DAM06-14-2021INFLOW (KAF)2306320872
91WHBI1SALMON-AT WHITEBIRD06-14-2021DISCHARGE (KAF)1402275551
92TRYO3GRANDE RONDE-TROY06-14-2021DISCHARGE (KAF)28739972
93ANAW1SNAKE-NEAR ANATONE06-14-2021DISCHARGE (KAF)4376674265
94ORFI1CLEARWATER-AT OROFINO06-14-2021DISCHARGE (KAF)712138851
95DWRI1NF CLEARWATER-DWORSHAK DAM06-14-2021INFLOW (KAF)47175662
96SPDI1CLEARWATER-AT SPALDING06-14-2021DISCHARGE (KAF)23182277102
97LGDW1SNAKE-LOWER GRANITE DAM06-14-2021INFLOW (KAF)6694908374
98LGSW1SNAKE-LITTLE GOOSE DAM06-14-2021INFLOW (KAF)6632910673
99LMNW1SNAKE-LOWER MONUMENTAL DAM06-14-2021INFLOW (KAF)6687912273
100IHDW1SNAKE-ICE HARBOR DAM06-14-2021INFLOW (KAF)6699905474
101TCHW1WALLA WALLA-NEAR TOUCHET06-14-2021DISCHARGE (KAF)31027
102MCDW1COLUMBIA-MCNARY DAM06-14-2021INFLOW (KAF)308114281872
103GIBO3UMATILLA-NEAR GIBBON06-14-2021DISCHARGE (KAF)121585
104PDTO3UMATILLA-AT PENDLETON06-14-2021DISCHARGE (KAF)131681
105MYKO3MCKAY CREEK-NEAR PILOT ROCK06-14-2021DISCHARGE (KAF)0150
106UMAO3UMATILLA-NEAR UMATILLA06-14-2021DISCHARGE (KAF)3931407
107MONO3NF JOHN DAY-AT MONUMENT06-14-2021DISCHARGE (KAF)428351
108SERO3JOHN DAY-AT SERVICE CK06-14-2021DISCHARGE (KAF)5311944
109JDAO3COLUMBIA-JOHN DAY DAM06-14-2021INFLOW (KAF)313274345672
110MODO3DESCHUTES-AT MOODY NR BIGGS06-14-2021DISCHARGE (KAF)1062110696
111TDAO3COLUMBIA-THE DALLES DAM06-14-2021INFLOW (KAF)317453988280
112PITW1KLICKITAT-NEAR PITT06-14-2021DISCHARGE (KAF)17524073
113HODO3HOOD-NEAR TUCKER BRIDGE06-14-2021DISCHARGE (KAF)8710285
114UNDW1WHITE SALMON-NEAR UNDERWOOD06-14-2021DISCHARGE (KAF)15218881
115BONO3COLUMBIA-BONNEVILLE DAM06-14-2021INFLOW (KAF)321704096579